Stena Suede — ZCEF5 — position and weather

sailwx.info

Track history (hours):
 
Tides and Currents Weather Stations Pressure Air Temp Water Temp Dewpoint Dewpoint Depression Visibility Wind Speed Wind Dir Waves Ship Positions

Stena Suede

Last reported at 2014-Oct-30 11:32 UTC. Time now 2014-Nov-23 00:43 UTC.
Position N 49°51' W 003°36'.
Warning: this ship's position is 23 days out of date.

Length 274 m; draft 9.4 m.

Type: Tanker. MMSI: 310622000.

Date/timePositionNaut miles runAvg speedWind from/ knotsBaromVisibWave heightAir tempDewpointWater temp
2014-Oct-30 11:32N 49°51' W 003°36'8 8.5
2014-Oct-30 10:34N 49°54' W 003°24'3 3.1
2014-Oct-30 09:32N 49°55' W 003°19'3 3.4
2014-Oct-30 08:33N 49°56' W 003°14'5 4.6
2014-Oct-30 07:23N 49°57' W 003°06'1012.5
2014-Oct-30 06:33N 49°60' W 002°50'3314.5
2014-Oct-30 04:16N 50°09' W 002°01'3912.2
2014-Oct-30 01:06N 50°19' W 001°02'610.1
2014-Oct-30 00:33N 50°21' W 000°54'10 9.9
2014-Oct-29 23:33N 50°23' W 000°39'1010.5
2014-Oct-29 22:33N 50°26' W 000°23'1211.9
2014-Oct-29 21:33N 50°29' W 000°05'1413.0
2014-Oct-29 20:29N 50°34' E 000°16'1313.7
2014-Oct-29 19:33N 50°37' E 000°35'1313.3
2014-Oct-29 18:33N 50°44' E 000°53'1212.3
2014-Oct-29 17:33N 50°51' E 001°09'1111.0
2014-Oct-29 16:33N 50°58' E 001°22'10 9.8
2014-Oct-29 15:34N 51°06' E 001°32'1010.2
2014-Oct-29 14:34N 51°12' E 001°45'1211.7
2014-Oct-29 13:33N 51°22' E 001°55'1010.3
2014-Oct-29 12:33N 51°21' E 002°12'1313.3
2014-Oct-29 11:33N 51°23' E 002°33'1212.5
2014-Oct-29 10:33N 51°25' E 002°53'1413.4
2014-Oct-29 09:32N 51°25' E 003°15'1313.2
2014-Oct-29 08:33N 51°26' E 003°35'6 5.7
2014-Oct-29 07:33N 51°24' E 003°44'0 0.1
2014-Oct-29 06:31N 51°24' E 003°44'0 0.1
2014-Oct-29 05:31N 51°24' E 003°44'0 0.2
2014-Oct-29 04:31N 51°24' E 003°45'0 0.1
2014-Oct-29 03:31N 51°24' E 003°44'0 0.1
2014-Oct-29 02:31N 51°24' E 003°45'0 0.0
2014-Oct-29 01:31N 51°24' E 003°45'0 0.0
2014-Oct-29 00:28N 51°24' E 003°45'0 0.1
2014-Oct-28 23:31N 51°24' E 003°44'0 0.2
2014-Oct-28 22:31N 51°24' E 003°44'0 0.0
2014-Oct-28 21:31N 51°24' E 003°44'0 0.0
2014-Oct-28 20:31N 51°24' E 003°44'0 0.0
2014-Oct-28 19:34N 51°24' E 003°44'0 0.0
2014-Oct-28 18:34N 51°24' E 003°44'0 0.0
2014-Oct-28 17:33N 51°24' E 003°44'2 2.3
2014-Oct-28 16:33N 51°26' E 003°41'5 4.6
2014-Oct-28 15:33N 51°25' E 003°34'9 8.9
2014-Oct-28 14:33N 51°24' E 003°20'1212.0
2014-Oct-28 13:33N 51°24' E 003°01'1312.7
2014-Oct-28 12:33N 51°22' E 002°41'4 4.4
2014-Oct-28 11:33N 51°22' E 002°33'4 4.3
2014-Oct-28 10:33N 51°21' E 002°27'5 5.2
2014-Oct-28 09:33N 51°19' E 002°19'5 5.5
2014-Oct-28 08:33N 51°19' E 002°11'7 7.3
2014-Oct-28 07:33N 51°23' E 002°01'8 7.6
2014-Oct-28 06:33N 51°31' E 002°02'1111.3
2014-Oct-28 05:33N 51°39' E 002°15'1110.8
2014-Oct-28 04:33N 51°47' E 002°27'1010.3
2014-Oct-28 03:33N 51°55' E 002°38'1111.2
2014-Oct-28 02:33N 52°06' E 002°37'1212.0
2014-Oct-28 01:33N 52°17' E 002°44'1313.3
2014-Oct-28 00:33N 52°29' E 002°54'1413.5
2014-Oct-27 23:31N 52°41' E 003°04'1313.5
2014-Oct-27 22:33N 52°53' E 003°14'1413.0
2014-Oct-27 21:29N 53°06' E 003°21'1212.1
2014-Oct-27 20:32N 53°17' E 003°27'1211.3
2014-Oct-27 19:26N 53°29' E 003°33'1111.0
2014-Oct-27 18:25N 53°40' E 003°39'1210.5
2014-Oct-27 17:18N 53°48' E 003°52'4511.6
2014-Oct-27 13:25N 54°05' E 005°03'1012.0
2014-Oct-27 12:33N 54°07' E 005°21'1211.7
2014-Oct-27 11:33N 54°08' E 005°41'1111.2
2014-Oct-27 10:32N 54°10' E 006°00'3511.0
2014-Oct-27 07:21N 54°13' E 006°60'1012.2
2014-Oct-27 06:33N 54°12' E 007°16'1110.7
2014-Oct-27 05:33N 54°07' E 007°33'1312.9
2014-Oct-27 04:32N 53°55' E 007°43'1313.6
2014-Oct-27 03:33N 53°48' E 008°01'1413.9
2014-Oct-27 02:33N 53°35' E 008°10'1 1.2
2014-Oct-27 01:33N 53°34' E 008°10'0 0.0
2014-Oct-27 00:33N 53°34' E 008°10'0 0.0
2014-Oct-26 23:31N 53°34' E 008°10'0 0.0
2014-Oct-26 22:31N 53°34' E 008°10'0 0.0
2014-Oct-26 21:31N 53°34' E 008°10'0 0.0
2014-Oct-26 20:31N 53°34' E 008°10'0 0.0
2014-Oct-26 19:31N 53°34' E 008°10'0 0.0
2014-Oct-26 18:28N 53°34' E 008°10'0 0.0
2014-Oct-26 17:31N 53°34' E 008°10'0 0.0
2014-Oct-26 16:31N 53°34' E 008°10'0 0.0
2014-Oct-26 15:31N 53°34' E 008°10'0 0.0
2014-Oct-26 14:31N 53°34' E 008°10'0 0.0
2014-Oct-26 13:31N 53°34' E 008°10'0 0.0
2014-Oct-26 12:31N 53°34' E 008°10'0 0.0
2014-Oct-26 11:28N 53°34' E 008°10'0 0.0
2014-Oct-26 10:31N 53°34' E 008°10'0 0.0
2014-Oct-26 09:31N 53°34' E 008°10'0 0.0
2014-Oct-26 08:28N 53°34' E 008°10'0 0.0
2014-Oct-26 07:31N 53°34' E 008°10'0 0.0
2014-Oct-26 06:25N 53°34' E 008°10'0 0.0
2014-Oct-26 05:31N 53°34' E 008°10'0 0.0
2014-Oct-26 04:31N 53°34' E 008°10'0 0.0
2014-Oct-26 03:28N 53°34' E 008°10'0 0.0
2014-Oct-26 02:31N 53°34' E 008°10'0 0.0
2014-Oct-26 01:31N 53°34' E 008°10'0 0.0
2014-Oct-26 00:28N 53°34' E 008°10'0 0.0
2014-Oct-25 23:31N 53°34' E 008°10'0 0.0
2014-Oct-25 22:31N 53°34' E 008°10'0 0.0
2014-Oct-25 21:31N 53°34' E 008°10'0 0.0
2014-Oct-25 20:31N 53°34' E 008°10'0 0.0
2014-Oct-25 19:31N 53°34' E 008°10'0 0.0
2014-Oct-25 18:33N 53°34' E 008°10'1 1.3
2014-Oct-25 17:34N 53°35' E 008°10'4 4.4
2014-Oct-25 16:34N 53°39' E 008°07'6 6.1
2014-Oct-25 15:34N 53°45' E 008°03'7 6.8
2014-Oct-25 14:33N 53°49' E 007°55'9 9.2
2014-Oct-25 13:33N 53°54' E 007°42'1212.1
2014-Oct-25 12:34N 54°05' E 007°31'8 8.4
2014-Oct-25 11:33N 54°09' E 007°19'5413.2
2014-Oct-25 07:27N 54°06' E 005°46'1213.6
2014-Oct-25 06:32N 54°04' E 005°25'1313.4
2014-Oct-25 05:32N 54°02' E 005°03'1312.8
2014-Oct-25 04:33N 53°59' E 004°42'16711.8
2014-Oct-24 14:20N 51°35' E 002°20'1114.6
2014-Oct-24 13:33N 51°27' E 002°09'1413.8
2014-Oct-24 12:33N 51°14' E 002°02'1515.3
2014-Oct-24 11:33N 51°05' E 001°42'1515.0
2014-Oct-24 10:33N 50°53' E 001°27'16011.3
2014-Oct-23 20:24N 50°20' W 002°39'1214.1
2014-Oct-23 19:33N 50°23' W 002°58'1313.5
2014-Oct-23 18:33N 50°25' W 003°18'6 5.6
2014-Oct-23 17:33N 50°22' W 003°25'1111.3
2014-Oct-23 16:33N 50°10' W 003°27'1313.1
2014-Oct-23 15:33N 49°58' W 003°35'  
2014-Oct-21 04:18N 39°15' W 010°27'1012.9
2014-Oct-21 03:32N 39°05' W 010°29'1312.5
2014-Oct-21 02:29N 38°52' W 010°31'1112.2
2014-Oct-21 01:33N 38°41' W 010°33'1312.3
2014-Oct-21 00:29N 38°28' W 010°35'1212.7
2014-Oct-20 23:33N 38°16' W 010°38'1212.3
2014-Oct-20 22:33N 38°04' W 010°39'1512.1
2014-Oct-20 21:18N 37°49' W 010°42'1012.7
2014-Oct-20 20:33N 37°39' W 010°43'1312.8
2014-Oct-20 19:33N 37°27' W 010°45'1212.3
2014-Oct-20 18:32N 37°14' W 010°48'  
Track history (hours):
 
Tides and Currents Weather Stations Pressure Air Temp Water Temp Dewpoint Dewpoint Depression Visibility Wind Speed Wind Dir Waves Ship Positions

Stena Suede

Last reported at 2014-Oct-30 11:32 UTC. Time now 2014-Nov-23 00:43 UTC.
Position N 49°51' W 003°36'.
Warning: this ship's position is 23 days out of date.

Length 274 m; draft 9.4 m.

Type: Tanker. MMSI: 310622000.

Date/timePositionNaut miles runAvg speedWind from/ knotsBaromVisibWave heightAir tempDewpointWater temp
2014-Oct-30 11:32N 49°51' W 003°36'8 8.5
2014-Oct-30 10:34N 49°54' W 003°24'3 3.1
2014-Oct-30 09:32N 49°55' W 003°19'3 3.4
2014-Oct-30 08:33N 49°56' W 003°14'5 4.6
2014-Oct-30 07:23N 49°57' W 003°06'1012.5
2014-Oct-30 06:33N 49°60' W 002°50'3314.5
2014-Oct-30 04:16N 50°09' W 002°01'3912.2
2014-Oct-30 01:06N 50°19' W 001°02'610.1
2014-Oct-30 00:33N 50°21' W 000°54'10 9.9
2014-Oct-29 23:33N 50°23' W 000°39'1010.5
2014-Oct-29 22:33N 50°26' W 000°23'1211.9
2014-Oct-29 21:33N 50°29' W 000°05'1413.0
2014-Oct-29 20:29N 50°34' E 000°16'1313.7
2014-Oct-29 19:33N 50°37' E 000°35'1313.3
2014-Oct-29 18:33N 50°44' E 000°53'1212.3
2014-Oct-29 17:33N 50°51' E 001°09'1111.0
2014-Oct-29 16:33N 50°58' E 001°22'10 9.8
2014-Oct-29 15:34N 51°06' E 001°32'1010.2
2014-Oct-29 14:34N 51°12' E 001°45'1211.7
2014-Oct-29 13:33N 51°22' E 001°55'1010.3
2014-Oct-29 12:33N 51°21' E 002°12'1313.3
2014-Oct-29 11:33N 51°23' E 002°33'1212.5
2014-Oct-29 10:33N 51°25' E 002°53'1413.4
2014-Oct-29 09:32N 51°25' E 003°15'1313.2
2014-Oct-29 08:33N 51°26' E 003°35'6 5.7
2014-Oct-29 07:33N 51°24' E 003°44'0 0.1
2014-Oct-29 06:31N 51°24' E 003°44'0 0.1
2014-Oct-29 05:31N 51°24' E 003°44'0 0.2
2014-Oct-29 04:31N 51°24' E 003°45'0 0.1
2014-Oct-29 03:31N 51°24' E 003°44'0 0.1
2014-Oct-29 02:31N 51°24' E 003°45'0 0.0
2014-Oct-29 01:31N 51°24' E 003°45'0 0.0
2014-Oct-29 00:28N 51°24' E 003°45'0 0.1
2014-Oct-28 23:31N 51°24' E 003°44'0 0.2
2014-Oct-28 22:31N 51°24' E 003°44'0 0.0
2014-Oct-28 21:31N 51°24' E 003°44'0 0.0
2014-Oct-28 20:31N 51°24' E 003°44'0 0.0
2014-Oct-28 19:34N 51°24' E 003°44'0 0.0
2014-Oct-28 18:34N 51°24' E 003°44'0 0.0
2014-Oct-28 17:33N 51°24' E 003°44'2 2.3
2014-Oct-28 16:33N 51°26' E 003°41'5 4.6
2014-Oct-28 15:33N 51°25' E 003°34'9 8.9
2014-Oct-28 14:33N 51°24' E 003°20'1212.0
2014-Oct-28 13:33N 51°24' E 003°01'1312.7
2014-Oct-28 12:33N 51°22' E 002°41'4 4.4
2014-Oct-28 11:33N 51°22' E 002°33'4 4.3
2014-Oct-28 10:33N 51°21' E 002°27'5 5.2
2014-Oct-28 09:33N 51°19' E 002°19'5 5.5
2014-Oct-28 08:33N 51°19' E 002°11'7 7.3
2014-Oct-28 07:33N 51°23' E 002°01'8 7.6
2014-Oct-28 06:33N 51°31' E 002°02'1111.3
2014-Oct-28 05:33N 51°39' E 002°15'1110.8
2014-Oct-28 04:33N 51°47' E 002°27'1010.3
2014-Oct-28 03:33N 51°55' E 002°38'1111.2
2014-Oct-28 02:33N 52°06' E 002°37'1212.0
2014-Oct-28 01:33N 52°17' E 002°44'1313.3
2014-Oct-28 00:33N 52°29' E 002°54'1413.5
2014-Oct-27 23:31N 52°41' E 003°04'1313.5
2014-Oct-27 22:33N 52°53' E 003°14'1413.0
2014-Oct-27 21:29N 53°06' E 003°21'1212.1
2014-Oct-27 20:32N 53°17' E 003°27'1211.3
2014-Oct-27 19:26N 53°29' E 003°33'1111.0
2014-Oct-27 18:25N 53°40' E 003°39'1210.5
2014-Oct-27 17:18N 53°48' E 003°52'4511.6
2014-Oct-27 13:25N 54°05' E 005°03'1012.0
2014-Oct-27 12:33N 54°07' E 005°21'1211.7
2014-Oct-27 11:33N 54°08' E 005°41'1111.2
2014-Oct-27 10:32N 54°10' E 006°00'3511.0
2014-Oct-27 07:21N 54°13' E 006°60'1012.2
2014-Oct-27 06:33N 54°12' E 007°16'1110.7
2014-Oct-27 05:33N 54°07' E 007°33'1312.9
2014-Oct-27 04:32N 53°55' E 007°43'1313.6
2014-Oct-27 03:33N 53°48' E 008°01'1413.9
2014-Oct-27 02:33N 53°35' E 008°10'1 1.2
2014-Oct-27 01:33N 53°34' E 008°10'0 0.0
2014-Oct-27 00:33N 53°34' E 008°10'0 0.0
2014-Oct-26 23:31N 53°34' E 008°10'0 0.0
2014-Oct-26 22:31N 53°34' E 008°10'0 0.0
2014-Oct-26 21:31N 53°34' E 008°10'0 0.0
2014-Oct-26 20:31N 53°34' E 008°10'0 0.0
2014-Oct-26 19:31N 53°34' E 008°10'0 0.0
2014-Oct-26 18:28N 53°34' E 008°10'0 0.0
2014-Oct-26 17:31N 53°34' E 008°10'0 0.0
2014-Oct-26 16:31N 53°34' E 008°10'0 0.0
2014-Oct-26 15:31N 53°34' E 008°10'0 0.0
2014-Oct-26 14:31N 53°34' E 008°10'0 0.0
2014-Oct-26 13:31N 53°34' E 008°10'0 0.0
2014-Oct-26 12:31N 53°34' E 008°10'0 0.0
2014-Oct-26 11:28N 53°34' E 008°10'0 0.0
2014-Oct-26 10:31N 53°34' E 008°10'0 0.0
2014-Oct-26 09:31N 53°34' E 008°10'0 0.0
2014-Oct-26 08:28N 53°34' E 008°10'0 0.0
2014-Oct-26 07:31N 53°34' E 008°10'0 0.0
2014-Oct-26 06:25N 53°34' E 008°10'0 0.0
2014-Oct-26 05:31N 53°34' E 008°10'0 0.0
2014-Oct-26 04:31N 53°34' E 008°10'0 0.0
2014-Oct-26 03:28N 53°34' E 008°10'0 0.0
2014-Oct-26 02:31N 53°34' E 008°10'0 0.0
2014-Oct-26 01:31N 53°34' E 008°10'0 0.0
2014-Oct-26 00:28N 53°34' E 008°10'0 0.0
2014-Oct-25 23:31N 53°34' E 008°10'0 0.0
2014-Oct-25 22:31N 53°34' E 008°10'0 0.0
2014-Oct-25 21:31N 53°34' E 008°10'0 0.0
2014-Oct-25 20:31N 53°34' E 008°10'0 0.0
2014-Oct-25 19:31N 53°34' E 008°10'0 0.0
2014-Oct-25 18:33N 53°34' E 008°10'1 1.3
2014-Oct-25 17:34N 53°35' E 008°10'4 4.4
2014-Oct-25 16:34N 53°39' E 008°07'6 6.1
2014-Oct-25 15:34N 53°45' E 008°03'7 6.8
2014-Oct-25 14:33N 53°49' E 007°55'9 9.2
2014-Oct-25 13:33N 53°54' E 007°42'1212.1
2014-Oct-25 12:34N 54°05' E 007°31'8 8.4
2014-Oct-25 11:33N 54°09' E 007°19'5413.2
2014-Oct-25 07:27N 54°06' E 005°46'1213.6
2014-Oct-25 06:32N 54°04' E 005°25'1313.4
2014-Oct-25 05:32N 54°02' E 005°03'1312.8
2014-Oct-25 04:33N 53°59' E 004°42'16711.8
2014-Oct-24 14:20N 51°35' E 002°20'1114.6
2014-Oct-24 13:33N 51°27' E 002°09'1413.8
2014-Oct-24 12:33N 51°14' E 002°02'1515.3
2014-Oct-24 11:33N 51°05' E 001°42'1515.0
2014-Oct-24 10:33N 50°53' E 001°27'16011.3
2014-Oct-23 20:24N 50°20' W 002°39'1214.1
2014-Oct-23 19:33N 50°23' W 002°58'1313.5
2014-Oct-23 18:33N 50°25' W 003°18'6 5.6
2014-Oct-23 17:33N 50°22' W 003°25'1111.3
2014-Oct-23 16:33N 50°10' W 003°27'1313.1
2014-Oct-23 15:33N 49°58' W 003°35'  
2014-Oct-21 04:18N 39°15' W 010°27'1012.9
2014-Oct-21 03:32N 39°05' W 010°29'1312.5
2014-Oct-21 02:29N 38°52' W 010°31'1112.2
2014-Oct-21 01:33N 38°41' W 010°33'1312.3
2014-Oct-21 00:29N 38°28' W 010°35'1212.7
2014-Oct-20 23:33N 38°16' W 010°38'1212.3
2014-Oct-20 22:33N 38°04' W 010°39'1512.1
2014-Oct-20 21:18N 37°49' W 010°42'1012.7
2014-Oct-20 20:33N 37°39' W 010°43'1312.8
2014-Oct-20 19:33N 37°27' W 010°45'1212.3
2014-Oct-20 18:32N 37°14' W 010°48'  

Dump ship's entire track history